Location: Boiro
(42.6475°N, 8.8834°W)
Time: 23:52:35
(UTC+01:00)

Altair - Pass Details

Date: 03 December 2021
Orbit: 1501 x 1683 km, 47.2° (Epoch: 18 January)

Event Time Altitude Azimuth Distance (km) Brightness Sun altitude
Rises 22:54:07 0° 295° (WNW) 4,666 10.6 -52.5°
Reaches altitude 10° 22:57:10 10° 293° (WNW) 3,670 9.9 -53.1°
Enters shadow 23:00:26 25° 289° (WNW) 2,658 9.0 -53.6°
Maximum altitude 23:06:17 71° 212° (SSW) 1,571 - -54.6°
Drops below altitude 10° 23:15:24 10° 131° (SE) 3,664 - -56.1°
Sets 23:18:27 0° 129° (SE) 4,658 - -56.6°
